SCP
-0 -0 0 0 0 0 0 0 0 0 0 0 0 0 0 0 0 0 0 0 1 1 1 1 1 1 1 1 2 1 1 1 1 1 1 1 1 1 1 1 1 0 0
-0 -0 0 0 0 0 0 0 0 0 0 0 0 0 0 0 0 0 0 0 1 1 1 1 1 2 1 0 1 1 1 1 1 1 1 1 1 1 1 1 1 1 0
-0 -0 0 0 0 1 1 0 0 0 0 0 0 0 0 0 0 0 0 0 1 0 1 0 1 0 0 0 0 0 0 1 1 1 1 1 1 1 1 1 0 1 1
0 1 0 1 1 1 1 0 0 0 0 0 0 0 0 0 0 0 0 0 1 1 0 0 1 1 0 0 1 1 1 0 0 1 2 1 1 1 1 1 1 1 1
1 1 1 1 2 1 1 1 1 1 0 0 0 1 0 0 0 0 0 0 0 1 0 0 0 0 0 0 1 1 1 0 0 0 0 0 2 2 1 1 1 1 1
1 1 1 2 1 1 1 1 1 1 1 1 1 1 1 1 1 1 1 1 1 1 0 0 0 0 1 1 1 1 0 0 0 0 0 0 0 0 1 2 2 1 1
1 1 2 1 1 1 1 1 1 1 1 1 1 1 1 1 1 1 1 1 1 0 0 0 0 0 0 1 1 0 0 0 0 0 0 0 0 0 0 0 2 2 2
2 2 1 2 1 1 1 2 1 1 1 1 1 1 1 0 0 0 0 0 0 0 0 0 0 0 0 0 0 0 0 0 0 0 0 0 0 0 0 0 0 1 2
2 2 1 1 1 1 1 1 1 1 1 1 1 1 1 0 0 0 0 0 0 0 0 0 0 0 0 0 0 0 0 0 0 0 0 0 0 0 0 0 0 0 0
1 1 1 1 1 1 0 0 1 0 0 0 0 1 1 1 0 0 0 0 0 0 0 0 0 0 0 0 0 0 0 0 0 0 0 0 0 0 0 0 0 0 0
1 0 0 0 0 0 0 0 0 0 0 0 0 0 0 0 0 0 0 0 0 0 0 0 0 0 0 0 0 0 0 0 0 0 0 0 0 0 0 0 0 0 0
0 0 0 0 0 0 0 0 0 0 0 0 0 0 0 0 0 0 0 0 0 0 0 0 0 0 0 0 0 0 0 0 0 0 0 0 0 0 0 0 0 0 0
0 0 0 0 0 0 0 0 0 0 0 0 0 0 0 0 0 0 0 0 0 0 0 0 0 0 0 0 0 0 0 0 0 0 0 0 0 0 0 0 0 0 0
0 0 0 0 0 0 0 0 0 0 0 0 0 0 0 0 0 0 0 0 0 0 0 0 0 0 0 0 0 0 0 0 0 0 0 0 0 0 0 0 0 0 0
0 0 0 0 0 0 0 0 0 0 0 0 0 0 0 0 0 0 0 0 0 0 0 0 0 0 0 0 0 0 0 0 0 0 0 0 0 0 0 0 0 0 0
0 0 0 0 0 0 0 0 0 0 0 0 0 0 0 0 0 0 0 0 0 0 0 0 0 0 0 0 0 0 0 0 0 0 0 0 0 0 0 0 0 0 0
0 0 0 0 0 0 0 0 0 0 0 0 0 0 0 0 0 0 0 0 0 0 0 0 0 0 0 0 0 0 0 0 0 0 0 0 0 0 0 0 0 0 0
0 0 0 0 0 0 0 0 0 0 0 0 0 0 0 0 0 0 0 0 0 0 0 0 0 0 0 0 0 0 0 0 0 0 0 0 0 0 0 0 0 0 0
0 0 0 0 0 0 0 0 0 0 0 0 0 0 0 0 0 0 0 0 0 0 0 0 0 0 0 0 0 0 0 0 0 0 0 0 0 0 0 0 0 0 0
0 0 0 0 0 0 0 0 0 0 0 0 0 0 0 0 0 0 0 0 0 0 0 0 0 0 0 0 0 0 0 0 0 0 0 0 0 0 0 0 0 0 0
0 0 0 0 0 0 0 0 0 0 0 0 0 0 0 0 0 0 0 0 0 0 0 0 0 0 0 0 0 0 0 0 0 0 0 0 0 0 0 0 0 0 0
0 0 0 0 0 0 0 0 0 0 0 0 0 0 0 0 0 0 -0 -0 -0 -0 0 0 0 0 0 0 0 0 0 0 0 0 0 0 0 0 0 0 0 0 0
0 0 0 0 0 0 0 0 0 0 0 0 0 0 0 0 0 0 0 -0 0 -0 -0 0 0 0 0 0 0 0 0 0 0 0 0 0 0 0 0 0 0 0 0
0 0 0 0 0 0 0 0 0 0 0 0 0 0 0 0 0 0 0 0 0 -0 0 -0 0 0 0 0 0 0 0 0 0 0 0 0 0 0 0 0 0 0 0
0 0 0 0 0 0 0 0 0 0 0 0 0 0 0 0 0 0 0 0 -0 -0 -0 0 0 0 0 0 0 0 0 0 0 0 0 0 0 0 0 0 0 0 0
0 0 0 0 0 0 0 0 0 0 0 0 0 0 0 0 0 0 0 -0 -0 -0 -0 0 0 0 0 0 0 0 0 0 0 0 0 0 0 0 0 0 0 -0 0
Wind_Speed_500mb
21 16 11 7 9 8 12 15 21 25 29 25 27 30 35 45 45 45 45 45 45 47 48 52 60 61 66 56 53 55 57 59 59 60 59 55 52 52 51 52 51 50 51
22 19 12 19 7 12 14 12 14 19 29 32 32 31 37 46 51 53 51 52 53 57 64 56 52 59 73 66 62 60 61 64 70 66 65 63 60 57 54 53 53 50 48
24 19 15 14 11 5 11 18 29 34 36 34 35 36 37 41 39 43 43 47 56 50 63 56 45 64 83 76 50 59 66 63 69 69 70 70 65 61 56 53 49 51 47
28 26 26 18 14 15 19 26 25 28 34 38 38 39 45 47 52 55 53 56 59 72 63 62 62 73 83 67 70 65 76 84 80 77 72 72 72 62 53 51 46 44 44
21 30 21 21 15 17 24 27 32 33 38 41 45 51 51 52 53 58 63 62 62 52 62 69 77 59 44 41 49 55 66 68 67 70 72 77 80 55 45 41 40 38 33
14 19 24 29 24 28 25 25 28 33 34 39 45 50 51 50 51 55 56 60 62 65 67 61 49 49 37 41 46 50 55 56 57 58 63 70 66 68 43 29 33 34 32
16 14 21 18 24 30 25 28 30 32 34 35 43 50 55 54 47 48 38 37 40 42 45 48 50 42 48 51 51 52 53 57 47 59 68 71 70 78 85 48 29 27 27
22 25 22 15 27 26 24 28 29 26 29 33 37 42 34 57 37 45 45 34 37 48 47 51 46 45 51 55 57 57 55 49 37 40 52 59 79 65 70 71 49 38 31
25 24 21 25 25 22 26 21 24 32 34 32 32 26 26 23 60 53 56 50 51 55 47 44 50 60 64 62 55 59 48 48 47 42 44 47 49 64 74 94 79 62 51
32 34 30 25 20 16 18 20 24 27 31 32 31 28 25 33 40 41 39 54 48 54 59 61 57 48 56 64 61 60 51 54 57 53 51 37 37 42 46 67 95 103 81
39 37 27 17 14 14 16 18 22 28 28 28 28 29 31 36 37 45 42 55 60 53 54 53 51 36 43 43 50 45 50 54 50 65 56 56 64 49 41 38 51 54 69
30 22 19 14 8 10 16 19 20 22 22 24 28 32 32 35 41 45 53 55 51 54 59 63 64 51 54 58 53 39 35 39 42 47 48 54 71 61 49 52 58 61 66
18 17 11 7 9 13 15 15 17 19 24 26 30 32 30 28 30 36 47 58 66 68 63 61 57 54 55 55 57 59 62 63 58 53 52 51 48 48 54 61 63 68 76
12 9 8 5 6 11 15 16 19 23 26 29 29 31 33 34 34 35 45 45 60 59 63 61 58 52 51 59 67 60 57 52 54 52 52 56 61 67 73 78 81 85 85
9 4 1 6 8 13 18 23 25 20 20 29 32 32 30 34 33 32 33 38 46 52 64 59 71 74 67 64 64 63 60 59 57 52 55 57 59 61 65 64 62 64 68
7 2 3 8 13 17 23 26 20 14 20 19 22 24 29 32 37 35 41 41 40 50 47 68 68 70 68 65 63 59 55 56 54 47 49 54 57 63 63 68 72 69 72
6 3 5 9 11 12 14 19 22 23 28 28 28 29 31 36 39 32 33 36 42 46 56 69 66 70 62 64 60 57 57 60 64 59 54 52 57 59 65 67 67 68 71
5 4 8 4 5 13 18 22 25 29 32 26 27 30 30 32 27 32 36 40 46 46 51 62 60 64 57 62 72 69 65 69 66 61 64 59 54 54 57 60 63 71 75
9 6 0 5 10 16 24 28 26 29 28 22 25 27 18 27 36 41 46 51 49 45 41 46 57 59 64 66 69 78 72 67 71 68 61 52 49 45 45 48 48 57 63
7 4 6 9 17 24 22 20 22 23 21 20 24 22 21 27 36 45 51 41 40 42 41 43 51 60 68 75 71 72 74 77 72 59 56 60 56 49 50 45 45 40 38
1 8 10 17 18 15 16 19 23 23 20 20 22 21 23 26 35 44 48 42 38 41 44 46 53 57 65 73 71 65 63 76 76 56 64 52 50 44 44 43 42 41 46
11 12 20 18 16 17 20 24 24 21 18 20 18 21 24 33 38 42 45 41 43 45 41 42 46 52 53 62 68 62 63 65 64 60 61 52 57 56 55 42 35 36 42
14 13 15 23 20 17 19 24 23 22 17 20 16 21 27 34 36 38 40 41 39 47 55 45 39 38 46 49 58 60 58 50 68 63 64 65 68 82 55 32 41 43 42
6 11 19 23 20 17 20 24 23 18 10 11 9 18 25 32 34 39 44 43 44 41 51 60 43 29 31 37 49 51 53 57 63 54 63 61 73 77 60 47 54 50 55
9 15 18 18 20 18 19 25 25 13 6 4 6 20 24 25 27 37 42 45 46 46 36 47 53 36 26 33 33 48 59 64 66 62 67 71 74 77 69 72 55 57 53
9 18 15 16 21 22 22 22 24 13 5 11 13 20 20 17 24 32 38 44 47 51 42 36 45 49 46 42 40 39 43 54 64 52 62 66 71 69 44 70 58 56 43
Wind_Direction_500mb
174 183 222 240 283 314 334 336 344 318 325 313 303 305 305 297 298 297 295 299 289 290 292 293 292 296 295 293 294 288 283 277 272 270 270 272 267 267 269 266 262 259 260
177 205 217 228 275 289 319 342 344 315 300 309 297 287 288 294 301 294 295 297 295 282 281 278 289 286 284 296 288 286 284 280 275 271 270 266 261 264 263 264 264 259 255
173 208 217 205 214 200 249 253 263 273 279 289 293 294 297 298 297 300 297 291 285 289 284 290 296 296 302 300 305 294 289 286 283 278 270 266 260 258 261 259 261 261 258
200 204 217 219 225 250 261 266 279 286 290 291 290 292 290 289 282 283 284 285 289 295 290 294 293 304 303 301 293 287 292 285 280 279 275 264 258 255 254 255 257 259 259
230 229 218 219 236 261 253 267 280 288 298 293 291 293 297 294 288 285 286 287 290 290 291 298 302 304 313 326 316 302 299 294 288 279 274 269 258 245 249 251 253 252 251
238 227 213 206 229 251 266 281 284 297 300 298 300 301 304 304 306 304 302 293 292 298 300 302 309 308 311 316 315 313 322 309 290 284 280 275 262 246 234 254 253 253 254
241 215 222 226 244 253 268 282 294 301 305 309 309 306 304 311 314 321 320 314 305 310 312 318 320 309 306 309 314 321 321 321 309 290 285 279 267 265 245 219 242 252 253
203 226 237 241 247 261 268 281 295 301 309 312 314 315 321 314 322 313 312 304 302 307 309 311 307 307 312 310 312 316 320 315 318 318 299 292 273 254 235 221 216 215 247
227 235 229 238 246 255 269 277 288 296 302 308 309 310 316 307 312 315 312 306 307 302 307 304 306 309 310 309 312 312 309 313 306 299 306 297 300 288 273 241 224 221 232
219 229 231 244 240 252 259 275 291 300 301 305 308 307 301 310 322 319 314 313 311 310 312 311 314 315 316 322 316 310 312 310 301 294 291 293 298 301 289 268 247 241 233
213 223 235 245 257 273 291 303 302 302 305 306 315 314 310 304 305 314 320 314 311 311 318 323 330 339 326 335 334 323 315 313 302 298 283 284 282 274 284 289 276 252 248
222 224 228 234 252 288 296 302 300 300 309 309 312 310 311 315 312 316 318 321 321 315 313 313 316 313 311 321 326 328 326 326 321 310 292 286 277 259 256 251 248 249 243
201 213 212 234 275 295 305 311 309 308 306 312 317 316 314 315 316 313 312 315 319 318 319 316 327 324 324 318 315 315 311 311 309 307 305 302 298 288 284 282 280 272 268
175 193 222 251 294 308 312 323 318 314 320 324 328 331 326 325 327 329 327 331 330 324 327 331 331 332 323 316 313 313 315 316 314 312 305 298 293 288 285 282 280 279 278
207 187 36 322 321 318 320 334 341 340 338 339 341 345 345 343 338 332 329 328 327 330 329 327 322 318 321 319 318 320 315 310 305 301 300 297 291 291 289 287 284 279 276
185 199 334 356 353 341 342 346 3 6 349 350 340 330 328 330 325 324 324 326 324 329 322 316 321 326 329 328 331 332 331 329 320 312 306 302 295 289 282 277 281 281 280
133 63 5 5 5 335 322 327 331 325 323 315 307 317 326 327 326 333 337 334 329 327 321 321 326 331 335 347 341 339 339 335 328 327 323 313 304 300 286 280 275 276 277
118 11 36 89 299 306 320 318 316 317 324 322 313 325 339 339 335 337 333 329 327 325 322 322 330 338 347 357 349 344 340 340 337 328 325 317 310 304 295 290 281 277 274
79 73 198 257 285 303 311 318 327 326 327 323 327 342 353 339 348 349 339 331 332 335 336 332 332 347 351 352 347 350 346 340 337 331 329 326 320 311 305 300 295 285 279
145 182 258 299 308 314 330 341 346 355 8 27 30 18 11 3 357 354 354 353 355 356 1 351 346 346 349 350 350 344 343 352 344 347 339 332 330 326 314 309 293 288 282
208 300 327 332 338 348 5 18 12 11 13 34 30 36 26 8 12 5 4 11 6 353 351 344 342 346 348 352 351 350 351 348 0 352 347 359 348 342 338 326 316 307 295
54 25 0 353 4 24 24 11 8 2 17 30 44 33 21 11 15 11 22 26 28 7 351 341 341 345 347 351 351 347 342 348 347 354 349 9 358 351 342 338 338 328 311
44 12 10 4 6 18 25 11 1 0 19 69 51 31 17 14 8 11 15 21 17 20 17 358 339 344 341 352 351 351 357 339 344 352 352 354 358 354 2 358 345 341 337
34 29 18 3 11 17 23 16 9 10 86 100 69 29 1 10 6 10 11 13 18 12 19 18 359 341 349 346 352 359 356 347 344 359 359 345 357 358 358 354 355 353 334
54 18 11 2 20 21 26 25 26 46 101 26 63 13 1 6 8 6 2 0 3 9 15 18 16 7 341 342 343 352 9 5 353 356 357 351 355 352 0 2 356 347 343
32 6 2 13 17 22 21 23 27 38 25 15 14 17 11 16 10 4 355 353 350 355 357 13 9 12 19 12 5 1 2 2 357 346 346 346 354 357 338 352 358 349 351
Wind_Speed_850mb
21 16 11 7 9 8 12 15 21 25 29 25 27 30 35 45 45 45 45 45 45 47 48 52 60 61 66 56 53 55 57 59 59 60 59 55 52 52 51 52 51 50 51
22 19 12 19 7 12 14 12 14 19 29 32 32 31 37 46 51 53 51 52 53 57 64 56 52 59 73 66 62 60 61 64 70 66 65 63 60 57 54 53 53 50 48
24 19 15 14 11 5 11 18 29 34 36 34 35 36 37 41 39 43 43 47 56 50 63 56 45 64 83 76 50 59 66 63 69 69 70 70 65 61 56 53 49 51 47
28 26 26 18 14 15 19 26 25 28 34 38 38 39 45 47 52 55 53 56 59 72 63 62 62 73 83 67 70 65 76 84 80 77 72 72 72 62 53 51 46 44 44
21 30 21 21 15 17 24 27 32 33 38 41 45 51 51 52 53 58 63 62 62 52 62 69 77 59 44 41 49 55 66 68 67 70 72 77 80 55 45 41 40 38 33
14 19 24 29 24 28 25 25 28 33 34 39 45 50 51 50 51 55 56 60 62 65 67 61 49 49 37 41 46 50 55 56 57 58 63 70 66 68 43 29 33 34 32
16 14 21 18 24 30 25 28 30 32 34 35 43 50 55 54 47 48 38 37 40 42 45 48 50 42 48 51 51 52 53 57 47 59 68 71 70 78 85 48 29 27 27
22 25 22 15 27 26 24 28 29 26 29 33 37 42 34 57 37 45 45 34 37 48 47 51 46 45 51 55 57 57 55 49 37 40 52 59 79 65 70 71 49 38 31
25 24 21 25 25 22 26 21 24 32 34 32 32 26 26 23 60 53 56 50 51 55 47 44 50 60 64 62 55 59 48 48 47 42 44 47 49 64 74 94 79 62 51
32 34 30 25 20 16 18 20 24 27 31 32 31 28 25 33 40 41 39 54 48 54 59 61 57 48 56 64 61 60 51 54 57 53 51 37 37 42 46 67 95 103 81
39 37 27 17 14 14 16 18 22 28 28 28 28 29 31 36 37 45 42 55 60 53 54 53 51 36 43 43 50 45 50 54 50 65 56 56 64 49 41 38 51 54 69
30 22 19 14 8 10 16 19 20 22 22 24 28 32 32 35 41 45 53 55 51 54 59 63 64 51 54 58 53 39 35 39 42 47 48 54 71 61 49 52 58 61 66
18 17 11 7 9 13 15 15 17 19 24 26 30 32 30 28 30 36 47 58 66 68 63 61 57 54 55 55 57 59 62 63 58 53 52 51 48 48 54 61 63 68 76
12 9 8 5 6 11 15 16 19 23 26 29 29 31 33 34 34 35 45 45 60 59 63 61 58 52 51 59 67 60 57 52 54 52 52 56 61 67 73 78 81 85 85
9 4 1 6 8 13 18 23 25 20 20 29 32 32 30 34 33 32 33 38 46 52 64 59 71 74 67 64 64 63 60 59 57 52 55 57 59 61 65 64 62 64 68
7 2 3 8 13 17 23 26 20 14 20 19 22 24 29 32 37 35 41 41 40 50 47 68 68 70 68 65 63 59 55 56 54 47 49 54 57 63 63 68 72 69 72
6 3 5 9 11 12 14 19 22 23 28 28 28 29 31 36 39 32 33 36 42 46 56 69 66 70 62 64 60 57 57 60 64 59 54 52 57 59 65 67 67 68 71
5 4 8 4 5 13 18 22 25 29 32 26 27 30 30 32 27 32 36 40 46 46 51 62 60 64 57 62 72 69 65 69 66 61 64 59 54 54 57 60 63 71 75
9 6 0 5 10 16 24 28 26 29 28 22 25 27 18 27 36 41 46 51 49 45 41 46 57 59 64 66 69 78 72 67 71 68 61 52 49 45 45 48 48 57 63
7 4 6 9 17 24 22 20 22 23 21 20 24 22 21 27 36 45 51 41 40 42 41 43 51 60 68 75 71 72 74 77 72 59 56 60 56 49 50 45 45 40 38
1 8 10 17 18 15 16 19 23 23 20 20 22 21 23 26 35 44 48 42 38 41 44 46 53 57 65 73 71 65 63 76 76 56 64 52 50 44 44 43 42 41 46
11 12 20 18 16 17 20 24 24 21 18 20 18 21 24 33 38 42 45 41 43 45 41 42 46 52 53 62 68 62 63 65 64 60 61 52 57 56 55 42 35 36 42
14 13 15 23 20 17 19 24 23 22 17 20 16 21 27 34 36 38 40 41 39 47 55 45 39 38 46 49 58 60 58 50 68 63 64 65 68 82 55 32 41 43 42
6 11 19 23 20 17 20 24 23 18 10 11 9 18 25 32 34 39 44 43 44 41 51 60 43 29 31 37 49 51 53 57 63 54 63 61 73 77 60 47 54 50 55
9 15 18 18 20 18 19 25 25 13 6 4 6 20 24 25 27 37 42 45 46 46 36 47 53 36 26 33 33 48 59 64 66 62 67 71 74 77 69 72 55 57 53
9 18 15 16 21 22 22 22 24 13 5 11 13 20 20 17 24 32 38 44 47 51 42 36 45 49 46 42 40 39 43 54 64 52 62 66 71 69 44 70 58 56 43
Wind_Direction_850mb
174 183 222 240 283 314 334 336 344 318 325 313 303 305 305 297 298 297 295 299 289 290 292 293 292 296 295 293 294 288 283 277 272 270 270 272 267 267 269 266 262 259 260
177 205 217 228 275 289 319 342 344 315 300 309 297 287 288 294 301 294 295 297 295 282 281 278 289 286 284 296 288 286 284 280 275 271 270 266 261 264 263 264 264 259 255
173 208 217 205 214 200 249 253 263 273 279 289 293 294 297 298 297 300 297 291 285 289 284 290 296 296 302 300 305 294 289 286 283 278 270 266 260 258 261 259 261 261 258
200 204 217 219 225 250 261 266 279 286 290 291 290 292 290 289 282 283 284 285 289 295 290 294 293 304 303 301 293 287 292 285 280 279 275 264 258 255 254 255 257 259 259
230 229 218 219 236 261 253 267 280 288 298 293 291 293 297 294 288 285 286 287 290 290 291 298 302 304 313 326 316 302 299 294 288 279 274 269 258 245 249 251 253 252 251
238 227 213 206 229 251 266 281 284 297 300 298 300 301 304 304 306 304 302 293 292 298 300 302 309 308 311 316 315 313 322 309 290 284 280 275 262 246 234 254 253 253 254
241 215 222 226 244 253 268 282 294 301 305 309 309 306 304 311 314 321 320 314 305 310 312 318 320 309 306 309 314 321 321 321 309 290 285 279 267 265 245 219 242 252 253
203 226 237 241 247 261 268 281 295 301 309 312 314 315 321 314 322 313 312 304 302 307 309 311 307 307 312 310 312 316 320 315 318 318 299 292 273 254 235 221 216 215 247
227 235 229 238 246 255 269 277 288 296 302 308 309 310 316 307 312 315 312 306 307 302 307 304 306 309 310 309 312 312 309 313 306 299 306 297 300 288 273 241 224 221 232
219 229 231 244 240 252 259 275 291 300 301 305 308 307 301 310 322 319 314 313 311 310 312 311 314 315 316 322 316 310 312 310 301 294 291 293 298 301 289 268 247 241 233
213 223 235 245 257 273 291 303 302 302 305 306 315 314 310 304 305 314 320 314 311 311 318 323 330 339 326 335 334 323 315 313 302 298 283 284 282 274 284 289 276 252 248
222 224 228 234 252 288 296 302 300 300 309 309 312 310 311 315 312 316 318 321 321 315 313 313 316 313 311 321 326 328 326 326 321 310 292 286 277 259 256 251 248 249 243
201 213 212 234 275 295 305 311 309 308 306 312 317 316 314 315 316 313 312 315 319 318 319 316 327 324 324 318 315 315 311 311 309 307 305 302 298 288 284 282 280 272 268
175 193 222 251 294 308 312 323 318 314 320 324 328 331 326 325 327 329 327 331 330 324 327 331 331 332 323 316 313 313 315 316 314 312 305 298 293 288 285 282 280 279 278
207 187 36 322 321 318 320 334 341 340 338 339 341 345 345 343 338 332 329 328 327 330 329 327 322 318 321 319 318 320 315 310 305 301 300 297 291 291 289 287 284 279 276
185 199 334 356 353 341 342 346 3 6 349 350 340 330 328 330 325 324 324 326 324 329 322 316 321 326 329 328 331 332 331 329 320 312 306 302 295 289 282 277 281 281 280
133 63 5 5 5 335 322 327 331 325 323 315 307 317 326 327 326 333 337 334 329 327 321 321 326 331 335 347 341 339 339 335 328 327 323 313 304 300 286 280 275 276 277
118 11 36 89 299 306 320 318 316 317 324 322 313 325 339 339 335 337 333 329 327 325 322 322 330 338 347 357 349 344 340 340 337 328 325 317 310 304 295 290 281 277 274
79 73 198 257 285 303 311 318 327 326 327 323 327 342 353 339 348 349 339 331 332 335 336 332 332 347 351 352 347 350 346 340 337 331 329 326 320 311 305 300 295 285 279
145 182 258 299 308 314 330 341 346 355 8 27 30 18 11 3 357 354 354 353 355 356 1 351 346 346 349 350 350 344 343 352 344 347 339 332 330 326 314 309 293 288 282
208 300 327 332 338 348 5 18 12 11 13 34 30 36 26 8 12 5 4 11 6 353 351 344 342 346 348 352 351 350 351 348 0 352 347 359 348 342 338 326 316 307 295
54 25 0 353 4 24 24 11 8 2 17 30 44 33 21 11 15 11 22 26 28 7 351 341 341 345 347 351 351 347 342 348 347 354 349 9 358 351 342 338 338 328 311
44 12 10 4 6 18 25 11 1 0 19 69 51 31 17 14 8 11 15 21 17 20 17 358 339 344 341 352 351 351 357 339 344 352 352 354 358 354 2 358 345 341 337
34 29 18 3 11 17 23 16 9 10 86 100 69 29 1 10 6 10 11 13 18 12 19 18 359 341 349 346 352 359 356 347 344 359 359 345 357 358 358 354 355 353 334
54 18 11 2 20 21 26 25 26 46 101 26 63 13 1 6 8 6 2 0 3 9 15 18 16 7 341 342 343 352 9 5 353 356 357 351 355 352 0 2 356 347 343
32 6 2 13 17 22 21 23 27 38 25 15 14 17 11 16 10 4 355 353 350 355 357 13 9 12 19 12 5 1 2 2 357 346 346 346 354 357 338 352 358 349 351